GW6322 Weather Reports


time (UTC)temp
F
wind
direction
speed
knots
gust
knots
rain 1hr
in
rain 24hr
in
rain mn
in
humidity
%
barometer
mb
20260906070039 71 59 4.3 9.6 0.00 0.00 0.00 87 1017.8
20260906064542 71 55 7.0 13.0 0.00 0.00 0.00 87 1017.9
20260906063042 72 65 6.1 12.2 0.00 0.00 0.00 86 1017.6
20260906061543 72 61 6.1 16.5 0.00 0.00 0.00 86 1017.8
20260906060044 72 34 7.0 12.2 0.00 0.00 0.00 85 1017.8
20260906054544 73 46 6.1 11.3 0.00 0.00 0.00 85 1017.8
20260906053043 73 23 7.8 12.2 0.00 0.00 0.00 84 1017.8
20260906051538 73 61 7.0 11.3 0.00 0.00 0.00 84 1017.6
20260906050051 74 53 6.1 11.3 0.00 0.00 0.00 85 1017.6
20260906044541 74 58 5.2 11.3 0.00 0.00 0.00 85 1017.6
20260906043039 74 46 7.0 13.0 0.00 0.00 0.00 85 1017.2
20260906041537 74 57 4.3 10.4 0.00 0.00 0.00 86 1016.8
20260906040044 74 48 2.6 4.3 0.00 0.00 0.00 85 1016.6
20260906034540 75 26 3.5 6.1 0.00 0.00 0.00 85 1016.4
20260906033047 75 292 0.9 3.5 0.00 0.00 0.00 85 1016.5
20260906031538 75 0 0.0 2.6 0.00 0.00 0.00 84 1016.5
20260906030047 75 69 0.9 3.5 0.00 0.00 0.00 85 1016.1
20260906024546 75 84 1.7 3.5 0.00 0.00 0.00 85 1016.0
20260906023049 75 74 1.7 4.3 0.00 0.00 0.00 85 1015.6
20260906021538 75 78 2.6 4.3 0.00 0.00 0.00 84 1015.8
20260906020051 75 78 2.6 6.1 0.00 0.00 0.00 84 1015.3
20260906014542 75 96 2.6 7.8 0.00 0.00 0.00 84 1015.4
20260906013049 76 71 3.5 7.0 0.00 0.00 0.00 83 1015.1
20260906011557 76 43 4.3 9.6 0.00 0.00 0.00 83 1015.1
20260906010043 77 42 2.6 7.8 0.00 0.00 0.00 83 1015.4
20260906004540 77 38 2.6 10.4 0.00 0.00 0.00 82 1015.3
20260906003038 78 28 5.2 10.4 0.00 0.00 0.00 80 1015.4
20260906001540 79 31 5.2 11.3 0.00 0.00 0.00 80 1015.5
20260906000050 80 69 5.2 13.9 0.00 0.00 0.00 78 1015.1
20260905234538 82 46 5.2 17.4 0.00 0.00 0.00 77 1014.9
20260905233040 82 291 7.0 13.9 0.00 0.00 0.00 77 1014.9
20260905231540 83 43 6.1 13.0 0.00 0.00 0.00 77 1014.9
20260905230039 83 46 7.0 13.9 0.00 0.00 0.00 77 1015.0
20260905224548 84 15 9.6 13.9 0.00 0.00 0.00 77 1014.8
20260905223042 84 38 7.8 15.6 0.00 0.00 0.00 77 1014.6
20260905221538 85 9 7.8 13.9 0.00 0.00 0.00 76 1014.6
20260905220038 85 16 8.7 14.8 0.00 0.00 0.00 74 1014.6
20260905214542 86 24 7.8 13.0 0.00 0.00 0.00 74 1014.5
20260905213040 86 11 7.0 13.9 0.00 0.00 0.00 74 1014.4
20260905211549 87 32 6.1 13.9 0.00 0.00 0.00 74 1014.1
20260905210039 88 42 7.8 15.6 0.00 0.00 0.00 74 1014.1
20260905204544 89 30 5.2 13.0 0.00 0.00 0.00 72 1014.1
20260905203040 89 290 8.7 13.0 0.00 0.00 0.00 71 1014.3
20260905201540 90 52 7.0 13.0 0.00 0.00 0.00 70 1014.5
20260905200042 91 277 3.5 10.4 0.00 0.00 0.00 68 1014.3
20260905194541 91 13 5.2 10.4 0.00 0.00 0.00 67 1014.5
20260905193037 90 17 3.5 7.8 0.00 0.00 0.00 67 1014.6
20260905191541 90 16 4.3 9.6 0.00 0.00 0.00 68 1014.7
20260905190039 91 5 3.5 8.7 0.00 0.00 0.00 66 1014.8
20260905184604 90 36 4.3 7.8 0.00 0.00 0.00 68 1015.0
20260905183048 90 44 2.6 8.7 0.00 0.00 0.00 68 1014.9
20260905181547 89 51 4.3 11.3 0.00 0.00 0.00 69 1015.0
20260905180045 89 11 5.2 8.7 0.00 0.00 0.00 67 1015.0
20260905174541 90 67 5.2 10.4 0.00 0.00 0.00 68 1015.2
20260905173038 89 21 4.3 13.0 0.00 0.00 0.00 68 1015.1
20260905171542 90 27 5.2 10.4 0.00 0.00 0.00 67 1015.3
20260905170040 88 42 5.2 11.3 0.00 0.00 0.00 69 1015.5
20260905164542 89 49 5.2 9.6 0.00 0.00 0.00 68 1015.6
20260905163042 88 41 4.3 9.6 0.00 0.00 0.00 69 1015.4
20260905161541 87 75 5.2 11.3 0.00 0.00 0.00 69 1015.5
20260905160042 87 66 7.0 12.2 0.00 0.00 0.00 71 1015.5
20260905154606 87 49 6.1 10.4 0.00 0.00 0.00 73 1015.4
20260905153040 86 61 6.1 11.3 0.00 0.00 0.00 74 1015.4
20260905151538 85 38 4.3 9.6 0.00 0.00 0.00 75 1015.4
20260905150042 85 16 4.3 9.6 0.00 0.00 0.00 76 1015.2
20260905144541 84 73 6.1 11.3 0.00 0.00 0.00 75 1015.0
20260905143042 84 45 6.1 11.3 0.00 0.00 0.00 76 1014.7
20260905141538 83 55 3.5 7.8 0.00 0.00 0.00 82 1014.5
20260905140046 82 61 4.3 8.7 0.00 0.00 0.00 84 1014.5
20260905134539 81 19 4.3 7.8 0.00 0.00 0.00 85 1014.4
20260905133043 80 32 3.5 7.8 0.00 0.00 0.00 87 1014.2
20260905131542 79 69 1.7 5.2 0.00 0.00 0.00 88 1014.1
20260905130046 78 0 1.7 3.5 0.00 0.00 0.00 89 1014.2
20260905124538 77 41 2.6 4.3 0.00 0.00 0.00 90 1014.3
20260905123036 77 24 0.9 3.5 0.00 0.00 0.00 90 1014.1
20260905121540 76 360 1.7 3.5 0.00 0.00 0.00 91 1014.1
20260905120045 76 0 0.0 1.7 0.00 0.00 0.00 91 1013.6
20260905114540 76 265 0.9 1.7 0.00 0.00 0.00 91 1013.3
20260905113047 76 0 0.0 1.7 0.00 0.00 0.00 90 1013.0
20260905111603 76 0 0.0 0.0 0.00 0.00 0.00 90 1012.9
20260905110041 76 0 0.0 0.0 0.00 0.00 0.00 89 1013.0
20260905104537 77 0 0.0 0.0 0.00 0.00 0.00 89 1012.8
20260905103041 77 0 0.0 1.7 0.00 0.00 0.00 88 1013.1
20260905101553 77 265 0.9 2.6 0.00 0.00 0.00 88 1012.9
20260905100048 78 286 0.9 2.6 0.00 0.00 0.00 87 1013.1
20260905094541 78 24 1.7 3.5 0.00 0.00 0.00 87 1013.1
20260905093038 79 0 0.0 2.6 0.00 0.00 0.00 86 1013.1
20260905091542 79 223 0.9 2.6 0.00 0.00 0.00 87 1013.2
20260905090041 79 173 2.6 5.2 0.00 0.00 0.00 87 1013.0
20260905084548 79 180 0.0 3.5 0.00 0.00 0.00 87 1013.1
20260905083040 79 0 0.0 0.0 0.00 0.00 0.00 86 1013.4
20260905081544 80 0 0.0 0.0 0.00 0.00 0.00 86 1013.4
20260905080049 80 0 0.0 2.6 0.00 0.00 0.00 86 1013.3
20260905074545 80 0 0.0 1.7 0.00 0.00 0.00 86 1013.5
20260905073045 80 186 1.7 4.3 0.00 0.00 0.00 86 1013.4
20260905071543 80 0 0.0 0.0 0.00 0.00 0.00 86 1013.4